Location: Sungai Kamana Besar
(2.6333°N, 113.4333°E)
Time: 01:35:41
(UTC+00:00)

X-37B - Visible Passes

Search period start: 19 August 2022 00:00
Search period end: 29 August 2022 00:00
Orbit: 328 x 343 km, 45.0° (Epoch: 12 August)

Date Brightness Start Highest point End Pass type
(mag) Time Alt. Az. Time Alt. Az. Time Alt. Az.
19 Aug 3.9 11:19:03 10° WNW 11:19:35 10° NW 11:20:07 10° NW visible
19 Aug 3.2 21:03:39 10° N 21:05:44 18° NE 21:07:49 10° E visible
20 Aug 0.2 21:24:52 29° NW 21:26:06 70° SW 21:28:58 10° SE visible
21 Aug 2.4 21:46:23 13° SW 21:46:29 13° SW 21:47:50 10° SSW visible
